{"data":{"norad_id":57830,"intl_designator":"2023-139A","name":"YAOGAN-40 01A","alt_names":[],"object_type":"PAYLOAD","status":"ACTIVE","operator":null,"country":"PRC","launch_date":"2023-09-10","launch_site_code":"TAISC","launch_vehicle":null,"mission":null,"orbit_class":"UNKNOWN","rcs_meters":null,"size_class":null,"mass_kg":null,"dimensions":null,"purposes":[],"wikipedia_slug":null,"has_3d_model":false,"image_url":null,"decayed_at":null,"tle_current":{"epoch":"2026-05-25T04:48:06.446304Z","epoch_age_seconds":61799,"freshness":"FRESH","line1":"1 57830U 23139A   26145.20007461  .00000105  00000+0  46573-4 0  9993","line2":"2 57830  85.9899 270.2684 0001833  97.7514 262.3877 14.12442320139450","mean_motion":14.1244232,"eccentricity":0.0001833,"inclination_deg":85.9899,"raan_deg":270.2684,"arg_perigee_deg":97.7514,"mean_anomaly_deg":262.3877,"bstar":4.6573e-5,"rev_number":13945,"period_min":101.95106586724,"perigee_km":849.70105790393,"apogee_km":852.35126911967,"semimajor_km":7229.1631635118,"source":"CELESTRAK","updated_at":"2026-05-25T13:38:00.282039Z"}}}